Weather History for Hulett, WY

Change the Weather History Date:

Wednesday, April 9, 2014

  Actual Average (KEFC) Record (KEFC)
Temperature  
Mean Temperature 56 °F -  
Max Temperature 71 °F 59 °F 87 °F (1977)
Min Temperature 42 °F 28 °F 15 °F (1959)
Degree Days  
Heating Degree Days 8    
Growing Degree Days 6 (Base 50)    
Moisture  
Dew Point 31 °F    
Average Humidity 48    
Maximum Humidity 76    
Minimum Humidity 17    
Precipitation  
Precipitation 0.00 in - - ()
Sea Level Pressure  
Sea Level Pressure 29.85 in    
Wind  
Wind Speed 10 mph (West)    
Max Wind Speed 24 mph    
Max Gust Speed 31 mph    
Visibility 10 miles    
Events Rain    
Averages and records for this station are not official NWS values.
T = Trace of Precipitation, MM = Missing Value Source: NWS Daily Summary

Daily Weather History Graph

Daily Weather History Graph

Search for Another Location

Airport:

Trip Planner

Search our weather history database for the weather conditions in past years. The results will help you decide how hot, cold, wet, or windy it might be!

Date:

Astronomy

Apr. 09, 2014 Rise Set
Actual Time 6:24 AM MDT 7:35 PM MDT
Civil Twilight 5:54 AM MDT 8:05 PM MDT
Nautical Twilight 5:18 AM MDT 8:42 PM MDT
Astronomical Twilight 4:40 AM MDT 9:20 PM MDT
Moon 2:14 PM MDT (4/9) 3:27 AM MDT (4/9)
Length of Visible Light 14h 11m
Length of Day
13h 11m
Waxing Gibbous, 72% of the Moon is Illuminated
Apr 9
Waxing Gibbous
Apr 15
Full
Apr 22
Last Quarter
Apr 29
New
May 6
First Quarter

Hourly Weather History & Observations

Time (MDT) Temp. Windchill Dew Point Humidity Pressure Visibility Wind Dir Wind Speed Gust Speed Precip Events Conditions
12:15 AM 50.0 °F - 28.4 °F 43% 29.94 in 10.0 mi SSW 11.5 mph - N/A   Clear
12:35 AM 50.0 °F - 28.4 °F 43% 29.93 in 10.0 mi SSW 11.5 mph - N/A   Clear
12:55 AM 50.0 °F - 28.4 °F 43% 29.92 in 10.0 mi SSW 9.2 mph - N/A   Clear
1:15 AM 46.4 °F 41.9 °F 28.4 °F 50% 29.92 in 10.0 mi SW 9.2 mph - N/A   Clear
1:35 AM 46.4 °F 42.4 °F 28.4 °F 50% 29.92 in 10.0 mi SSW 8.1 mph - N/A   Clear
1:55 AM 44.6 °F 40.7 °F 28.4 °F 53% 29.91 in 10.0 mi SW 6.9 mph - N/A   Clear
2:15 AM 42.8 °F 39.3 °F 30.2 °F 61% 29.90 in 10.0 mi SW 5.8 mph - N/A   Clear
2:35 AM 42.8 °F 37.5 °F 30.2 °F 61% 29.89 in 10.0 mi SSW 9.2 mph - N/A   Clear
2:55 AM 44.6 °F 39.7 °F 30.2 °F 57% 29.88 in 10.0 mi SSW 9.2 mph - N/A   Clear
3:15 AM 42.8 °F 37.5 °F 30.2 °F 61% 29.88 in 10.0 mi SSW 9.2 mph - N/A   Clear
3:35 AM 46.4 °F 41.9 °F 28.4 °F 50% 29.88 in 10.0 mi SW 9.2 mph - N/A   Clear
3:55 AM 48.2 °F - 28.4 °F 46% 29.88 in 10.0 mi SW 8.1 mph - N/A   Clear
4:15 AM 46.4 °F 41.5 °F 28.4 °F 50% 29.87 in 10.0 mi SW 10.4 mph - N/A   Clear
4:35 AM 46.4 °F 41.1 °F 28.4 °F 50% 29.87 in 10.0 mi SW 11.5 mph - N/A   Clear
4:55 AM 46.4 °F 41.5 °F 30.2 °F 53% 29.87 in 10.0 mi SSW 10.4 mph - N/A   Clear
5:15 AM 48.2 °F - 28.4 °F 46% 29.86 in 10.0 mi SSW 9.2 mph - N/A   Clear
5:35 AM 50.0 °F - 28.4 °F 43% 29.86 in 10.0 mi SSW 10.4 mph - N/A   Clear
5:55 AM 50.0 °F - 28.4 °F 43% 29.86 in 10.0 mi SW 9.2 mph - N/A   Clear
6:15 AM 48.2 °F - 28.4 °F 46% 29.85 in 10.0 mi SSW 9.2 mph - N/A   Clear
6:35 AM 48.2 °F - 28.4 °F 46% 29.85 in 10.0 mi WSW 8.1 mph - N/A   Clear
6:55 AM 44.6 °F 39.7 °F 30.2 °F 57% 29.84 in 10.0 mi SSW 9.2 mph - N/A   Clear
7:15 AM 46.4 °F 42.4 °F 30.2 °F 53% 29.84 in 10.0 mi SW 8.1 mph - N/A   Clear
7:35 AM 44.6 °F 40.2 °F 30.2 °F 57% 29.84 in 10.0 mi SW 8.1 mph - N/A   Clear
7:55 AM 44.6 °F 39.2 °F 30.2 °F 57% 29.84 in 10.0 mi WSW 10.4 mph - N/A   Clear
8:15 AM 46.4 °F 41.9 °F 32.0 °F 57% 29.85 in 10.0 mi WSW 9.2 mph - N/A   Clear
8:35 AM 50.0 °F - 30.2 °F 47% 29.84 in 10.0 mi SW 10.4 mph - N/A   Clear
8:55 AM 53.6 °F - 30.2 °F 41% 29.84 in 10.0 mi SW 10.4 mph - N/A   Clear
9:15 AM 57.2 °F - 30.2 °F 36% 29.84 in 10.0 mi SW 11.5 mph - N/A   Clear
9:35 AM 59.0 °F - 28.4 °F 31% 29.84 in 10.0 mi SW 11.5 mph - N/A   Scattered Clouds
9:55 AM 59.0 °F - 28.4 °F 31% 29.84 in 10.0 mi SW 11.5 mph - N/A   Scattered Clouds
10:15 AM 59.0 °F - 30.2 °F 34% 29.84 in 10.0 mi SW 12.7 mph - N/A   Scattered Clouds
10:35 AM 59.0 °F - 30.2 °F 34% 29.84 in 10.0 mi WSW 8.1 mph - N/A   Clear
10:55 AM 60.8 °F - 30.2 °F 31% 29.83 in 10.0 mi WSW 11.5 mph - N/A   Clear
11:15 AM 62.6 °F - 32.0 °F 32% 29.82 in 10.0 mi SW 11.5 mph - N/A   Clear
11:35 AM 62.6 °F - 32.0 °F 32% 29.81 in 10.0 mi SW 12.7 mph 18.4 mph N/A   Clear
11:55 AM 64.4 °F - 32.0 °F 30% 29.81 in 10.0 mi SW 12.7 mph 17.3 mph N/A   Clear
12:15 PM 64.4 °F - 32.0 °F 30% 29.79 in 10.0 mi SW 12.7 mph - N/A   Clear
12:35 PM 68.0 °F - 30.2 °F 24% 29.77 in 10.0 mi SW 13.8 mph - N/A   Clear
12:55 PM 69.8 °F - 32.0 °F 25% 29.77 in 10.0 mi West 11.5 mph 20.7 mph N/A   Clear
1:15 PM 69.8 °F - 30.2 °F 23% 29.76 in 10.0 mi West 6.9 mph - N/A   Clear
1:55 PM 71.6 °F - 30.2 °F 22% 29.74 in 10.0 mi SW 13.8 mph 20.7 mph N/A   Clear
2:15 PM 69.8 °F - 26.6 °F 20% 29.73 in 10.0 mi WSW 12.7 mph 24.2 mph N/A   Mostly Cloudy
2:35 PM 69.8 °F - 23.0 °F 17% 29.73 in 10.0 mi WNW 12.7 mph 21.9 mph N/A   Mostly Cloudy
2:55 PM 68.0 °F - 28.4 °F 23% 29.73 in 10.0 mi WNW 12.7 mph 24.2 mph N/A   Overcast
3:15 PM 66.2 °F - 30.2 °F 26% 29.74 in 10.0 mi NW 12.7 mph 23.0 mph N/A   Overcast
3:35 PM 64.4 °F - 30.2 °F 28% 29.75 in 10.0 mi WSW 16.1 mph 26.5 mph N/A   Overcast
3:55 PM 64.4 °F - 30.2 °F 28% 29.74 in 10.0 mi West 10.4 mph 19.6 mph N/A   Overcast
4:15 PM 62.6 °F - 33.8 °F 34% 29.74 in 10.0 mi North 20.7 mph 31.1 mph N/A   Mostly Cloudy
4:35 PM 60.8 °F - 33.8 °F 36% 29.77 in 10.0 mi North 12.7 mph 25.3 mph N/A   Mostly Cloudy
4:55 PM 60.8 °F - 33.8 °F 36% 29.77 in 10.0 mi North 19.6 mph 29.9 mph N/A   Overcast
5:15 PM 59.0 °F - 33.8 °F 39% 29.81 in 10.0 mi NNW 19.6 mph 28.8 mph N/A   Overcast
5:35 PM 57.2 °F - 33.8 °F 41% 29.82 in 10.0 mi NNW 19.6 mph 29.9 mph N/A   Overcast
5:55 PM 55.4 °F - 35.6 °F 47% 29.84 in 10.0 mi North 24.2 mph 31.1 mph N/A   Overcast
6:15 PM 53.6 °F - 37.4 °F 54% 29.86 in 10.0 mi NNW 24.2 mph 27.6 mph N/A Rain Light Rain
6:35 PM 50.0 °F - 37.4 °F 62% 29.86 in 10.0 mi North 13.8 mph 24.2 mph N/A   Overcast
6:55 PM 50.0 °F - 37.4 °F 62% 29.87 in 10.0 mi North 9.2 mph 19.6 mph N/A   Overcast
7:15 PM 48.2 °F - 37.4 °F 66% 29.87 in 10.0 mi North 9.2 mph - N/A   Overcast
7:35 PM 46.4 °F 42.4 °F 37.4 °F 71% 29.88 in 10.0 mi NNW 8.1 mph - N/A Rain Light Rain
7:55 PM 44.6 °F 38.8 °F 37.4 °F 76% 29.88 in 10.0 mi North 11.5 mph - N/A Rain Light Rain
8:15 PM 44.6 °F 41.4 °F 37.4 °F 76% 29.88 in 10.0 mi NNE 5.8 mph - N/A Rain Light Rain
8:35 PM 44.6 °F - 37.4 °F 76% 29.89 in 10.0 mi Calm Calm - N/A   Overcast
8:55 PM 44.6 °F 43.1 °F 35.6 °F 71% 29.90 in 10.0 mi North 3.5 mph - N/A   Overcast
9:15 PM 44.6 °F 43.1 °F 35.6 °F 71% 29.91 in 10.0 mi North 3.5 mph - N/A   Mostly Cloudy
9:35 PM 44.6 °F 43.1 °F 35.6 °F 71% 29.91 in 10.0 mi North 3.5 mph - N/A   Overcast
9:55 PM 44.6 °F 43.1 °F 35.6 °F 71% 29.92 in 10.0 mi NNW 3.5 mph - N/A   Overcast
10:15 PM 42.8 °F 41.1 °F 33.8 °F 70% 29.92 in 10.0 mi NNW 3.5 mph - N/A   Overcast
10:35 PM 44.6 °F 43.1 °F 33.8 °F 66% 29.93 in 10.0 mi NNW 3.5 mph - N/A   Mostly Cloudy
10:55 PM 42.8 °F 38.0 °F 33.8 °F 70% 29.93 in 10.0 mi NNW 8.1 mph - N/A   Scattered Clouds
11:15 PM 42.8 °F 41.1 °F 33.8 °F 70% 29.94 in 10.0 mi NNW 3.5 mph - N/A   Mostly Cloudy
11:35 PM 42.8 °F 39.3 °F 32.0 °F 66% 29.94 in 10.0 mi North 5.8 mph - N/A   Scattered Clouds
11:55 PM 42.8 °F 38.6 °F 32.0 °F 66% 29.95 in 10.0 mi North 6.9 mph - N/A   Clear